Other Public Products
Issued by NWS Grand Forks, ND

Home | Current Version | Previous Version | Text Only | Print | Product List | Glossary Off
Versions: 1 2 3 4 5 6 7 8 9 10 11 12 13 14 15 16 17 18 19 20 21 22 23 24 25 26 27 28 29 30 31 32 33 34 35 36 37 38 39 40 41 42 43 44 45 46 47 48 49 50

000
FPUS83 KFGF 011510
OPUFGF
PRAIRIE TO PINES WEATHER ROUNDUP
NATIONAL WEATHER SERVICE EASTERN NORTH DAKOTA/GRAND FORKS ND
1000 AM CDT FRI AUG 01 2014

 **SATELLITE DATA USED TO AUGMENT SKY COVER AT AUTOMATED STATIONS**
 *****  WEATHER ACROSS EASTERN NORTH DAKOTA  *****

CITY           SKY/WX    TMP DP  RH WIND       PRES   REMARKS
GRAND FORKS    SUNNY     72  59  63 NE5       30.06S
GRAND FORKS AF SUNNY     72  61  66 N3        30.08R
GRAND CITY NWS   N/A     72 N/A N/A VRB3        N/A
BUXTON         NOT AVBL
DEVILS LAKE    SUNNY     73  57  56 SE5       30.09R
FARGO          PTSUNNY   72  63  73 N5        30.06S
WAHPETON ARPT  SUNNY     72  59  64 NW6       30.08R
$$

 *****  WEATHER ACROSS CENTRAL AND WESTERN NORTH DAKOTA  *****

CITY           SKY/WX    TMP DP  RH WIND       PRES   REMARKS
JAMESTOWN      SUNNY     73  59  61 NE3       30.09R
BISMARCK       SUNNY     76  57  51 SE8       30.08S
MINOT          SUNNY     72  62  71 NE3       30.08S
MINOT AFB      SUNNY     72  64  76 E3        30.08S
GARRISON         N/A     73  62  68 E8        30.08R
WILLISTON      LGT RAIN  69  57  65 N17       30.10R
DICKINSON      SUNNY     71  59  65 NE9       30.06R
HETTINGER      MOSUNNY   74  55  51 SE6       30.08S
$$

 *****  OTHER OBSERVATIONS NORTHEAST NORTH DAKOTA  *****

CITY           SKY/WX    TMP DP  RH WIND       PRES   REMARKS
WALHALLA         N/A     72  68  88 NE3         N/A
LANGDON        FAIR      73  61  64 CALM      30.11R
CAVALIER       FAIR      72  59  64 N3        30.08R
GRAFTON        FAIR      72  59  64 N3        30.07S
CANDO          FAIR      72  61  68 CALM      30.11R
FORT TOTTEN      N/A     75  63  66 SE3       29.95
ROLLA          FAIR      72  61  68 SE5       30.13S
RUGBY          FAIR      72  64  78 E8        30.10R
 ***** THE ABOVE OBSERVATIONS ARE NON NWS ARE NOT QUALITY
        CONTROLLED AND MAY MIS-REPORT RAIN FOR SNOW...
$$

 *****  OTHER OBSERVATIONS SOUTHEAST NORTH DAKOTA *****

CITY           SKY/WX    TMP DP  RH WIND       PRES   REMARKS
COOPERSTOWN    NOT AVBL
VALLEY CITY    FAIR      73  64  73 NE5       30.09S
OAKES          NOT AVBL
GWINNER        SUNNY    N/A N/A N/A W3        30.10S
SHEYENNE NWR     N/A     74  63  67 W5        29.95
BUFFALO        NOT AVBL
WYNDMERE       NOT AVBL
 ***** THE ABOVE OBSERVATIONS ARE NON NWS ARE NOT QUALITY
       CONTROLLED AND MAY MIS-REPORT RAIN FOR SNOW...
$$

  *****  WEATHER ACROSS NORTHERN MINNESOTA  *****

CITY           SKY/WX    TMP DP  RH WIND       PRES   REMARKS
FLAG ISLAND    SUNNY     70  57  64 NE5       30.05F
WARROAD        SUNNY     70  63  78 CALM      30.07S
ROSEAU         SUNNY     70  61  73 CALM      30.07S
HALLOCK        SUNNY     72  61  68 N6        30.06F
THF RVR FALLS  NOT AVBL
HALSTAD          N/A     75  63  66 N6          N/A
FOSSTON        SUNNY     72  61  68 N6        30.08R
BAUDETTE       SUNNY     71  63  75 N3        30.07R
WASKISH        SUNNY     66  63  88 CALM      30.06S
CROOKSTON      SUNNY     72  61  68 N6        30.08R
$$
  *****  WEATHER ACROSS CENTRAL AND WEST MINNESOTA  *****

CITY           SKY/WX    TMP DP  RH WIND       PRES   REMARKS
BEMIDJI        SUNNY     71  57  61 NW6       30.07S
PARK RAPIDS    SUNNY     73  60  63 N6        30.06F
WADENA         SUNNY     72  64  78 CALM      30.07S
DETROIT LAKES  SUNNY     72  61  68 CALM      30.08S
MOORHEAD       MOSUNNY   70  66  88 CALM      30.07S
FERGUS FALLS   SUNNY     72  63  73 CALM      30.06S
ELBOW LAKE     FAIR      71  62  73 NW3       30.07S
MORRIS MN      SUNNY     75  63  64 NW5       30.07S
STAPLES        MOSUNNY   70  61  73 CALM      30.07F
WHEATON        SUNNY     72  61  68 NW8       30.09S
$$
  *****  WEATHER ELSEWHERE ACROSS MINNESOTA  *****

CITY           SKY/WX    TMP DP  RH WIND       PRES   REMARKS
DULUTH         SUNNY     66  53  63 SE3       30.07S
INTRNTL FALLS  SUNNY     70  58  65 NE3       30.06S
ELY            SUNNY     64  54  68 CALM      30.07S
CLOQUET        SUNNY     66  55  68 CALM      30.07S
BRAINERD       MOSUNNY   72  63  73 NW6       30.07F
HIBBING        SUNNY     71  57  61 CALM      30.07R
ALEXANDRIA     SUNNY     73  60  63 NW5       30.09S
SAINT CLOUD    SUNNY     76  61  59 CALM      30.06S
MINNEAPOLIS    SUNNY     75  62  64 W5        30.06S
$$

  *****  WEATHER ACROSS SOUTH DAKOTA  *****

CITY           SKY/WX    TMP DP  RH WIND       PRES   REMARKS
SIOUX FALLS    MOSUNNY   71  62  73 CALM      30.11S
BROOKINGS      NOT AVBL
WATERTOWN      SUNNY     74  58  57 W3        30.11R
HURON          SUNNY     71  61  70 CALM      30.09S
SISSETON         N/A     74  63  68 VRB3      30.07S
ABERDEEN       SUNNY     71  59  65 CALM      30.09S
MITCHELL       SUNNY     72  65  78 CALM      30.10S
PIERRE         SUNNY     77  63  61 SE13      30.06S
MOBRIDGE       SUNNY     73  64  73 SE9       30.05S
RAPID CITY     SUNNY     76  58  53 SE6       30.10F
$$

  *****  SOME WEATHER IN NEARBY STATES *****

CITY           SKY/WX    TMP DP  RH WIND       PRES   REMARKS
GLASGOW MT     SUNNY     75  56  51 CALM      30.08R
GREAT FALLS MT MOSUNNY   68  50  52 CALM      30.19S
CHEYENNE WY    SUNNY     68  49  50 SW6       30.32R
SCOTTSBLUFF NE SUNNY     71  53  52 VRB5      30.21S
OMAHA NE       PTSUNNY   73  61  65 NE3       30.09R
DES MOINES IA  MOSUNNY   75  61  61 CALM      30.09S
DAVENPORT IA   SUNNY     75  61  61 VRB7      30.10R
CHICAGO IL     MOSUNNY   78  56  46 VRB6      30.08S
EAU CLAIRE WI  SUNNY     73  62  68 CALM      30.05S
LA CROSSE WI   SUNNY     73  60  63 CALM      30.07S
$$

  *****  SOME NATIONAL WEATHER *****

CITY           SKY/WX    TMP DP  RH WIND       PRES   REMARKS
LA GUARDIA NY  PTSUNNY   82  67  60 CALM      30.19R
RALEIGH NC     CLOUDY    74  67  78 NE9       30.13R
ATLANTA GA     CLOUDY    70  65  84 E7        30.10R
NEW ORLEANS LA PTSUNNY   85  67  54 SE5       30.01S
OKLAHOMA CITY  PTSUNNY   75  64  68 E5        30.11S
ALBUQUERQUE NM MOSUNNY   68  54  60 N5        30.30R
SALT LAKE CITY MOSUNNY   74  50  42 S7        30.17R
LOS ANGELES CA PTSUNNY   69  63  81 CALM      29.93R
BOISE ID       SUNNY     76  49  38 SE8       30.08R
SEATTLE WA     PTSUNNY   67  51  56 NE7       30.07F
$$

*** WEATHER ACROSS MANITOBA...SASKATCHEWAN AND ONTARIO ***
                ***ONTARIO***

CITY           SKY/WX    TMP DP  RH WIND       PRES   REMARKS
GERALDTON      PTSUNNY   57  52  82 CALM      30.07S
THUNDER BAY    PTSUNNY   68  55  64 SE3       30.06S
SIOUX LOOKOUT  MOSUNNY   70  52  52 NW8       30.07S
TORONTO        MOSUNNY   77  61  57 S10       30.10F
BIG TROUT LK   NOT AVBL
PICKLE LAKE    MOSUNNY   64  52  63 VRB2      30.04S
DRYDEN         SUNNY     68  54  60 N5        30.08S
KENORA         NOT AVBL
$$
                *** MANITOBA***

CITY           SKY/WX    TMP DP  RH WIND       PRES   REMARKS
BRANDON        PTSUNNY   72  59  64 NW5       30.10S
DAUPHIN        SUNNY     75  61  60 W10       30.06F
ISLAND LAKE    PTSUNNY   68  54  60 W2        30.04F
PILOT MOUND      N/A    N/A N/A N/A W3          N/A
THE PAS        TSTM      66  63  88 N7        30.04
THOMPSON       PTSUNNY   64  63  94 W3        29.98
WINNIPEG       MOSUNNY   75  59  57 VRB2      30.07S
LYNN LAKE      CLOUDY    66  61  82 N8        30.05R
CHURCHILL      PTSUNNY   68  54  60 S10       29.93F
GILLAM         CLOUDY    70  55  60 S9        29.97F
$$
                ***SASKATCHEWAN***

CITY           SKY/WX    TMP DP  RH WIND       PRES   REMARKS
ESTEVAN        CLOUDY    72  63  73 S2        30.11S
KINDERSLEY     LGT RAIN  63  59  88 NE13      30.11F
LLOYDMINSTER   CLOUDY    63  59  88 N6        30.20R
PRINCE ALBERT  PTSUNNY   68  63  83 W3        30.11S
REGINA         MOSUNNY   72  59  64 SE8       30.10R


USA.gov is the U.S. government's official web portal to all federal, state and local government web resources and services.